Location: Noordwijk
(52.2400°N, 4.4500°E)
Time: 00:45:47
(UTC+00:00)

TIGRISAT - Pass Details

Date: 02 December 2022
Orbit: 601 x 684 km, 97.7° (Epoch: 29 January)

Event Time Altitude Azimuth Distance (km) Brightness Sun altitude
Rises 05:58:57 0° 209° (SSW) 2,891 ? -13.2°
Reaches altitude 10° 06:01:44 10° 228° (SW) 2,006 ? -12.8°
Maximum altitude 06:04:44 18° 272° (W) 1,569 ? -12.3°
Enters shadow 06:05:18 18° 282° (WNW) 1,591 ? -12.2°
